BIRKBGBW

Guest
Details From BIRK - Reykjavik
To BGBW - Narsarsuaq
Flight Number -
Tags decoded
Created
Modified
Stats Distance 670 nm / 1,241 km
Max Altitude 0 ft / 0 m
Waypoints 3
Social Downloads 1
Likes 0
Share VATSIM

Download

Looking for another format? Having issues loading an existing format? Contact us
Advertisement - Login to hide

Notes

Requested: BIRK EMBLA 063 062 BGBW Unmatched points: 063 062

Route

BIRK EMBLA BGBW

ID Type Via Altitude Latitude Longitude Leg Dist Tot Dist Heading (true) Name
O BIRK APT - 0 ft / 0 m 64.12964˚ -21.94061˚ - 0 nm - Reykjavik
EMBLA FIX - 0 ft / 0 m 63.47000˚ -26.98167˚ 139 nm 139 nm 256° / 251° -
O BGBW APT - 0 ft / 0 m 61.16052˚ -45.42598˚ 530 nm 670 nm 263° / 247° Narsarsuaq

Altitude Profile

Advertisement - Login to hide

Weather


0- 5 10 15 20 25 30 35+ Temperature / ° C

Clouds and Precipitation
Forecast for 2017-12-18 12:00 UTC. Updated 2 hours ago

Ground ~20,000 ft ~40,000 ft Winds

BIRK

Details ICAO BIRK (RKV)
Name Reykjavik
Region Iceland
Timezone Atlantic/Reykjavik (UTC+0.0)
Stats Elevation 47 ft / 14 m (AMSL)
Location 64.129644° -21.940609°
Runways 3
Magnetic Variation 13.772° W

METAR

BIRK 181100Z 15011KT 5000 RA BKN022 OVC040 06/02 Q0994 R19/290153

Decode

TAF

TAF BIRK 180759Z 1809/1909 16015KT 9999 -RADZ SCT020 OVC030 TX09/1817Z TN04/1906Z TEMPO 1812/1823 5000 RADZ OVC015 BECMG 1816/1818 25015KT BECMG 1900/1903 22020G30KT SHRA

Decode

Departure Runways

ID Width Length Bearing (true) Bearing (mag) Surface Threshold Offset Overrun Length
01 148 ft / 45 m 5,129 ft / 1,563 m 355.27° 9.04° Asphalt 262 ft / 80 m 0 ft / 0 m
06 98 ft / 30 m 2,800 ft / 853 m 46.35° 60.12° Asphalt 299 ft / 91 m 0 ft / 0 m
13 148 ft / 45 m 4,023 ft / 1,226 m 116.28° 130.05° Asphalt 0 ft / 0 m 0 ft / 0 m
19 148 ft / 45 m 5,129 ft / 1,563 m 175.27° 189.04° Asphalt 0 ft / 0 m 0 ft / 0 m
24 98 ft / 30 m 2,800 ft / 853 m 226.37° 240.14° Asphalt 0 ft / 0 m 0 ft / 0 m
31 148 ft / 45 m 4,023 ft / 1,226 m 296.30° 310.07° Asphalt 213 ft / 65 m 0 ft / 0 m

BGBW

Details ICAO BGBW (UAK)
Name Narsarsuaq
Region Greenland
Timezone America/Godthab (UTC-3.0)
Stats Elevation 112 ft / 34 m (AMSL)
Location 61.160516° -45.425976°
Runways 1
Magnetic Variation 22.902° W

METAR

BGBW 181050Z 22014KT 9999 -SN FEW010 BKN033 BKN064 M01/M07 Q0975

Decode

TAF

Not found

Destination Runways

ID Width Length Bearing (true) Bearing (mag) Surface Threshold Offset Overrun Length
07 148 ft / 45 m 5,921 ft / 1,805 m 40.57° 63.47° Concrete 0 ft / 0 m 0 ft / 0 m
25 148 ft / 45 m 5,921 ft / 1,805 m 220.58° 243.48° Concrete 0 ft / 0 m 279 ft / 85 m

Popular Alternatives